Vertical_Velocity
2 4 2 5 28 -7 4 16 0 11 1 1 -6 4 1 -1 1 -6 0 4 1 -0 5 -3 -1 3 1 2 -3 1 -2 -1
15 30 6 -36 -23 -11 19 -2 7 4 -3 -8 0 5 4 3 4 5 1 -1 1 -1 -0 -5 -2 -3 -1 -4 1 0 -1 1
17 23 7 11 2 -15 16 3 11 -4 -6 1 2 1 7 2 4 2 2 -2 2 1 -1 2 3 3 -1 3 -2 -8 0 -4
9 3 13 8 -3 -25 -12 1 -28 -23 1 -3 -1 0 1 7 4 1 -2 -2 -0 -2 0 -2 1 1 -4 1 0 2 1 -0
-1 1 6 -1 -8 -14 -33 -31 -4 7 1 4 3 7 5 4 -0 0 1 -4 -3 1 -4 -3 -0 2 -5 1 -3 -1 -2 -1
9 1 -5 -7 -16 -18 -6 3 2 6 11 6 1 3 0 2 8 -1 -2 1 0 0 -1 2 -4 -0 -6 -3 -3 -2 -5 -1
1 -7 -8 -1 4 -2 -3 -8 6 3 -4 2 -1 -2 2 3 2 0 -4 -1 3 -0 -1 -2 -2 2 -6 -7 -3 -1 -3 -2
-0 -4 4 7 -5 2 -2 9 5 1 4 4 -1 2 -3 1 0 -1 0 -2 -1 -2 -1 -2 -2 -1 -3 1 -3 3 1 -1
-1 -4 0 3 -0 1 6 2 2 2 5 -2 0 1 4 -2 4 0 -7 3 1 -3 -5 -6 5 -5 2 -1 -1 2 1 -1
4 4 1 2 4 4 -1 1 -6 3 7 3 1 2 2 -5 -1 1 0 -1 -4 -1 1 -5 1 1 -2 2 0 2 -1 -2
2 -0 2 -2 2 -2 0 -3 3 -1 1 -1 -0 -2 -7 0 5 2 -6 -9 1 2 -2 -2 -2 -3 1 -1 0 -2 -2 -1
-2 1 1 3 1 -5 -2 -2 0 -2 2 2 -5 -5 -2 -1 5 -2 -8 -4 4 -3 -1 1 0 -3 -0 -2 -3 -4 -2 -0
-1 -5 -2 -3 1 -2 -5 -0 2 -0 -4 -2 0 -1 5 3 -8 -4 -5 3 -1 2 2 -2 -1 -4 -7 -5 -3 -2 -3 -4
3 1 -2 -5 -4 -8 -1 -3 -0 12 10 4 1 3 -3 -0 -9 1 2 2 1 1 3 -2 -4 -2 1 -0 -6 -5 -1 -3
-3 0 0 2 -5 7 -3 -2 -4 -1 7 4 -1 3 -1 -3 -2 5 3 1 1 1 3 5 -0 -6 -3 3 -8 -3 -3 1
1 -0 -3 1 5 4 4 7 -3 5 5 -1 -1 1 -4 2 3 2 -1 -1 -0 0 0 -7 0 2 -3 -3 -3 -1 -3 -5
3 0 -0 2 3 3 3 6 7 4 0 -1 -1 -0 0 0 2 3 2 -0 3 -1 7 2 -3 5 -1 -4 -2 -2 -3 -5
0 3 4 2 3 1 4 -3 2 -1 3 2 2 1 2 2 4 -1 1 -0 1 -2 0 -2 1 1 -2 -3 -2 -1 -2 -2
5 4 3 5 5 4 8 4 2 1 3 -3 5 1 5 6 6 8 0 0 7 -3 -3 -1 -2 -0 -2 -3 -5 -5 -4 -4
3 4 3 2 3 5 2 -1 7 6 8 8 6 5 -3 -11 7 3 2 10 -1 3 4 0 -1 1 -3 -4 -3 -3 -2 -2
Height
3139 3139 3141 3140 3146 3154 3164 3168 3173 3177 3179 3181 3185 3186 3188 3190 3190 3190 3192 3193 3192 3192 3192 3190 3190 3188 3186 3184 3184 3183 3182 3180
3136 3134 3134 3138 3142 3155 3162 3166 3173 3176 3178 3184 3184 3187 3189 3190 3191 3191 3190 3191 3192 3192 3191 3190 3189 3187 3186 3185 3184 3183 3181 3179
3135 3120 3134 3134 3138 3153 3160 3163 3170 3172 3178 3182 3184 3187 3189 3191 3191 3191 3191 3191 3191 3190 3189 3189 3187 3186 3185 3184 3183 3182 3180 3179
3132 3135 3135 3133 3137 3144 3153 3160 3166 3169 3178 3181 3183 3186 3188 3189 3190 3190 3191 3190 3189 3188 3188 3187 3186 3185 3184 3183 3181 3180 3178 3176
3131 3130 3129 3128 3134 3142 3151 3163 3165 3172 3177 3181 3183 3185 3187 3188 3189 3189 3189 3188 3188 3187 3186 3184 3184 3183 3181 3181 3179 3177 3176 3173
3130 3131 3133 3137 3141 3147 3156 3163 3166 3172 3177 3180 3182 3184 3186 3186 3187 3186 3187 3187 3186 3185 3184 3182 3181 3180 3180 3179 3177 3174 3172 3169
3132 3135 3137 3141 3145 3153 3159 3165 3170 3174 3178 3180 3182 3183 3184 3185 3185 3185 3184 3184 3184 3183 3182 3181 3180 3179 3177 3176 3174 3171 3169 3166
3139 3140 3143 3148 3151 3157 3162 3167 3170 3173 3176 3178 3180 3181 3183 3183 3183 3182 3182 3183 3182 3182 3180 3179 3177 3174 3172 3171 3170 3168 3166 3163
3144 3147 3149 3153 3157 3160 3164 3166 3169 3172 3175 3177 3179 3179 3180 3181 3180 3180 3181 3180 3179 3179 3178 3176 3174 3171 3169 3167 3164 3163 3160 3159
3147 3150 3152 3154 3157 3160 3164 3166 3169 3171 3173 3175 3176 3177 3178 3178 3178 3177 3178 3179 3178 3176 3174 3172 3171 3168 3164 3162 3159 3157 3155 3152
3149 3152 3154 3157 3159 3161 3164 3166 3168 3171 3172 3173 3175 3175 3176 3176 3175 3173 3175 3177 3174 3173 3172 3169 3166 3164 3161 3158 3155 3152 3149 3147
3150 3152 3155 3157 3160 3162 3164 3165 3167 3169 3170 3171 3171 3172 3173 3173 3173 3172 3172 3173 3170 3169 3168 3165 3163 3161 3158 3155 3152 3148 3145 3141
3152 3154 3156 3157 3159 3161 3163 3165 3166 3166 3167 3167 3167 3168 3169 3169 3170 3169 3169 3168 3166 3165 3163 3161 3159 3157 3154 3151 3147 3143 3140 3137
3150 3153 3155 3157 3158 3161 3161 3162 3163 3163 3162 3163 3165 3165 3165 3166 3165 3165 3164 3164 3162 3161 3158 3156 3154 3152 3149 3145 3139 3137 3134 3130
3150 3152 3154 3155 3157 3157 3158 3159 3160 3160 3161 3161 3161 3161 3161 3161 3160 3160 3160 3158 3157 3155 3152 3151 3148 3145 3142 3140 3133 3128 3124 3121
3146 3148 3149 3150 3152 3153 3155 3156 3156 3156 3157 3156 3155 3156 3156 3156 3156 3155 3154 3152 3150 3148 3146 3143 3141 3137 3132 3129 3126 3122 3117 3111
3144 3145 3146 3147 3149 3150 3151 3152 3152 3152 3151 3150 3150 3150 3150 3150 3150 3149 3148 3146 3144 3142 3136 3134 3131 3129 3124 3120 3116 3112 3108 3104
3140 3141 3142 3144 3145 3146 3146 3145 3146 3146 3146 3145 3145 3144 3144 3144 3144 3143 3141 3139 3136 3132 3129 3125 3123 3119 3115 3111 3107 3103 3099 3094
3136 3137 3138 3139 3140 3140 3139 3139 3140 3140 3139 3140 3138 3138 3138 3138 3137 3136 3133 3130 3128 3125 3121 3117 3113 3110 3105 3102 3099 3094 3089 3083
3132 3133 3134 3135 3135 3135 3135 3135 3135 3134 3135 3134 3132 3131 3131 3130 3129 3127 3124 3121 3118 3116 3113 3108 3105 3101 3097 3094 3089 3083 3077 3072